Chopin — ZDFE4 — position and weather

sailwx.info

Track history (hours):
 
Tides and Currents Weather Stations Pressure Air Temp Water Temp Dewpoint Dewpoint Depression Visibility Wind Speed Wind Dir Waves Ship Positions

Chopin

Last reported at 2014-Jul-24 10:14 UTC. Time now 2014-Jul-24 20:05 UTC.
Position N 50°23' W 005°55'.

Length 104 m; draft 5.6 m.

Type: Cargo ship. MMSI: 236099000.

Date/timePositionNaut miles runAvg speedWind from/ knotsBaromVisibWave heightAir tempDewpointWater temp
2014-Jul-24 10:14N 50°23' W 005°55'6 9.1
2014-Jul-24 09:33N 50°27' W 005°48'10 9.5
2014-Jul-24 08:33N 50°33' W 005°36'10 9.6
2014-Jul-24 07:33N 50°39' W 005°25'9 9.4
2014-Jul-24 06:33N 50°45' W 005°13'82 8.2
2014-Jul-23 20:33N 51°21' W 003°17'1110.8
2014-Jul-23 19:33N 51°26' W 003°01'1211.8
2014-Jul-23 18:33N 51°30' W 002°44'1 1.0
2014-Jul-23 17:34N 51°31' W 002°42'0 0.0
2014-Jul-23 16:29N 51°31' W 002°42'0 0.0
2014-Jul-23 15:32N 51°31' W 002°42'0 0.0
2014-Jul-23 14:32N 51°31' W 002°42'0 0.0
2014-Jul-23 13:32N 51°31' W 002°42'0 0.0
2014-Jul-23 12:32N 51°31' W 002°42'0 0.0
2014-Jul-23 11:32N 51°31' W 002°42'0 0.0
2014-Jul-23 10:32N 51°31' W 002°42'0 0.0
2014-Jul-23 09:32N 51°31' W 002°42'0 0.0
2014-Jul-23 08:32N 51°31' W 002°42'0 0.0
2014-Jul-23 07:31N 51°31' W 002°42'0 0.0
2014-Jul-23 06:31N 51°31' W 002°42'0 0.0
2014-Jul-23 05:31N 51°31' W 002°42'0 0.0
2014-Jul-23 04:31N 51°31' W 002°42'0 0.0
2014-Jul-23 03:31N 51°31' W 002°42'0 0.0
2014-Jul-23 02:28N 51°31' W 002°42'0 0.0
2014-Jul-23 01:31N 51°31' W 002°42'0 0.0
2014-Jul-23 00:31N 51°31' W 002°42'0 0.0
2014-Jul-22 23:31N 51°31' W 002°42'0 0.0
2014-Jul-22 22:31N 51°31' W 002°42'0 0.0
2014-Jul-22 21:31N 51°31' W 002°42'0 0.0
2014-Jul-22 20:28N 51°31' W 002°42'0 0.0
2014-Jul-22 19:28N 51°31' W 002°42'0 0.0
2014-Jul-22 18:31N 51°31' W 002°42'0 0.0
2014-Jul-22 17:31N 51°31' W 002°42'0 0.0
2014-Jul-22 16:28N 51°31' W 002°42'0 0.0
2014-Jul-22 15:28N 51°31' W 002°42'0 0.0
2014-Jul-22 14:31N 51°31' W 002°42'0 0.0
2014-Jul-22 13:31N 51°31' W 002°42'0 0.0
2014-Jul-22 12:31N 51°31' W 002°42'0 0.0
2014-Jul-22 11:31N 51°31' W 002°42'0 0.0
2014-Jul-22 10:31N 51°31' W 002°42'0 0.0
2014-Jul-22 09:31N 51°31' W 002°42'0 0.0
2014-Jul-22 08:31N 51°31' W 002°42'0 0.0
2014-Jul-22 07:31N 51°31' W 002°42'0 0.0
2014-Jul-22 06:31N 51°31' W 002°42'0 0.0
2014-Jul-22 05:28N 51°31' W 002°42'0 0.0
2014-Jul-22 04:31N 51°31' W 002°42'0 0.0
2014-Jul-22 03:31N 51°31' W 002°42'0 0.0
2014-Jul-22 01:25N 51°31' W 002°42'0 0.0
2014-Jul-22 00:28N 51°31' W 002°42'0 0.0
2014-Jul-21 22:31N 51°31' W 002°42'0 0.0
2014-Jul-21 21:31N 51°31' W 002°42'0 0.0
2014-Jul-21 20:31N 51°31' W 002°42'0 0.0
2014-Jul-21 20:16N 51°31' W 002°42'0 0.0
2014-Jul-21 19:31N 51°31' W 002°42'0 0.0
2014-Jul-21 18:31N 51°31' W 002°42'0 0.0
2014-Jul-21 17:34N 51°31' W 002°42'0 0.0
2014-Jul-21 16:33N 51°31' W 002°42'0 0.0
2014-Jul-21 15:33N 51°31' W 002°42'0 0.0
2014-Jul-21 14:33N 51°31' W 002°42'0 0.0
2014-Jul-21 13:33N 51°31' W 002°42'0 0.0
2014-Jul-21 12:33N 51°31' W 002°42'1 0.5
2014-Jul-21 11:33N 51°30' W 002°43'7 7.5
2014-Jul-21 10:33N 51°28' W 002°54'1212.0
2014-Jul-21 09:33N 51°21' W 003°10'10 7.8
2014-Jul-21 08:15N 51°22' W 003°27'0 0.0
2014-Jul-21 06:27N 51°22' W 003°27'0 0.0
2014-Jul-21 02:33N 51°22' W 003°27'0 0.0
2014-Jul-20 17:33N 51°22' W 003°27'0 0.0
2014-Jul-20 14:13N 51°22' W 003°27'0 0.3
2014-Jul-20 13:33N 51°22' W 003°26'0 0.0
2014-Jul-20 05:33N 51°22' W 003°27'0 0.0
2014-Jul-20 01:28N 51°22' W 003°27'0 0.0
2014-Jul-19 17:09N 51°22' W 003°27'105 7.0
2014-Jul-19 02:04N 52°25' W 005°43'4 7.4
2014-Jul-19 01:33N 52°29' W 005°44'10 7.1
2014-Jul-19 00:10N 52°38' W 005°48'45 8.0
2014-Jul-18 18:33N 53°21' W 006°12'0 0.0
2014-Jul-18 11:22N 53°21' W 006°12'0 0.0
2014-Jul-18 10:28N 53°21' W 006°12'0 0.0
2014-Jul-18 08:04N 53°21' W 006°12'0 0.0
2014-Jul-18 05:04N 53°21' W 006°12'0 0.0
2014-Jul-18 04:28N 53°21' W 006°12'0 0.0
2014-Jul-18 02:10N 53°21' W 006°12'0 0.0
2014-Jul-18 01:22N 53°21' W 006°12'0 0.0
2014-Jul-18 00:04N 53°21' W 006°12'0 0.0
2014-Jul-17 21:16N 53°21' W 006°12'0 0.0
2014-Jul-17 19:28N 53°21' W 006°12'0 0.0
2014-Jul-17 18:14N 53°21' W 006°12'47 4.6
2014-Jul-17 08:04N 52°36' W 005°50'4 7.5
2014-Jul-17 07:33N 52°32' W 005°50'7 6.7
2014-Jul-17 06:32N 52°25' W 005°49'6 5.7
2014-Jul-17 05:33N 52°19' W 005°49'6 5.7
2014-Jul-17 04:32N 52°14' W 005°46'  
2014-Jul-14 14:09N 43°43' W 005°41'5 8.0
2014-Jul-14 13:32N 43°38' W 005°40'3 3.1
2014-Jul-14 12:33N 43°35' W 005°41'0 0.0
2014-Jul-14 11:30N 43°35' W 005°41'  
Track history (hours):
 
Tides and Currents Weather Stations Pressure Air Temp Water Temp Dewpoint Dewpoint Depression Visibility Wind Speed Wind Dir Waves Ship Positions

Chopin

Last reported at 2014-Jul-24 10:14 UTC. Time now 2014-Jul-24 20:05 UTC.
Position N 50°23' W 005°55'.

Length 104 m; draft 5.6 m.

Type: Cargo ship. MMSI: 236099000.

Date/timePositionNaut miles runAvg speedWind from/ knotsBaromVisibWave heightAir tempDewpointWater temp
2014-Jul-24 10:14N 50°23' W 005°55'6 9.1
2014-Jul-24 09:33N 50°27' W 005°48'10 9.5
2014-Jul-24 08:33N 50°33' W 005°36'10 9.6
2014-Jul-24 07:33N 50°39' W 005°25'9 9.4
2014-Jul-24 06:33N 50°45' W 005°13'82 8.2
2014-Jul-23 20:33N 51°21' W 003°17'1110.8
2014-Jul-23 19:33N 51°26' W 003°01'1211.8
2014-Jul-23 18:33N 51°30' W 002°44'1 1.0
2014-Jul-23 17:34N 51°31' W 002°42'0 0.0
2014-Jul-23 16:29N 51°31' W 002°42'0 0.0
2014-Jul-23 15:32N 51°31' W 002°42'0 0.0
2014-Jul-23 14:32N 51°31' W 002°42'0 0.0
2014-Jul-23 13:32N 51°31' W 002°42'0 0.0
2014-Jul-23 12:32N 51°31' W 002°42'0 0.0
2014-Jul-23 11:32N 51°31' W 002°42'0 0.0
2014-Jul-23 10:32N 51°31' W 002°42'0 0.0
2014-Jul-23 09:32N 51°31' W 002°42'0 0.0
2014-Jul-23 08:32N 51°31' W 002°42'0 0.0
2014-Jul-23 07:31N 51°31' W 002°42'0 0.0
2014-Jul-23 06:31N 51°31' W 002°42'0 0.0
2014-Jul-23 05:31N 51°31' W 002°42'0 0.0
2014-Jul-23 04:31N 51°31' W 002°42'0 0.0
2014-Jul-23 03:31N 51°31' W 002°42'0 0.0
2014-Jul-23 02:28N 51°31' W 002°42'0 0.0
2014-Jul-23 01:31N 51°31' W 002°42'0 0.0
2014-Jul-23 00:31N 51°31' W 002°42'0 0.0
2014-Jul-22 23:31N 51°31' W 002°42'0 0.0
2014-Jul-22 22:31N 51°31' W 002°42'0 0.0
2014-Jul-22 21:31N 51°31' W 002°42'0 0.0
2014-Jul-22 20:28N 51°31' W 002°42'0 0.0
2014-Jul-22 19:28N 51°31' W 002°42'0 0.0
2014-Jul-22 18:31N 51°31' W 002°42'0 0.0
2014-Jul-22 17:31N 51°31' W 002°42'0 0.0
2014-Jul-22 16:28N 51°31' W 002°42'0 0.0
2014-Jul-22 15:28N 51°31' W 002°42'0 0.0
2014-Jul-22 14:31N 51°31' W 002°42'0 0.0
2014-Jul-22 13:31N 51°31' W 002°42'0 0.0
2014-Jul-22 12:31N 51°31' W 002°42'0 0.0
2014-Jul-22 11:31N 51°31' W 002°42'0 0.0
2014-Jul-22 10:31N 51°31' W 002°42'0 0.0
2014-Jul-22 09:31N 51°31' W 002°42'0 0.0
2014-Jul-22 08:31N 51°31' W 002°42'0 0.0
2014-Jul-22 07:31N 51°31' W 002°42'0 0.0
2014-Jul-22 06:31N 51°31' W 002°42'0 0.0
2014-Jul-22 05:28N 51°31' W 002°42'0 0.0
2014-Jul-22 04:31N 51°31' W 002°42'0 0.0
2014-Jul-22 03:31N 51°31' W 002°42'0 0.0
2014-Jul-22 01:25N 51°31' W 002°42'0 0.0
2014-Jul-22 00:28N 51°31' W 002°42'0 0.0
2014-Jul-21 22:31N 51°31' W 002°42'0 0.0
2014-Jul-21 21:31N 51°31' W 002°42'0 0.0
2014-Jul-21 20:31N 51°31' W 002°42'0 0.0
2014-Jul-21 20:16N 51°31' W 002°42'0 0.0
2014-Jul-21 19:31N 51°31' W 002°42'0 0.0
2014-Jul-21 18:31N 51°31' W 002°42'0 0.0
2014-Jul-21 17:34N 51°31' W 002°42'0 0.0
2014-Jul-21 16:33N 51°31' W 002°42'0 0.0
2014-Jul-21 15:33N 51°31' W 002°42'0 0.0
2014-Jul-21 14:33N 51°31' W 002°42'0 0.0
2014-Jul-21 13:33N 51°31' W 002°42'0 0.0
2014-Jul-21 12:33N 51°31' W 002°42'1 0.5
2014-Jul-21 11:33N 51°30' W 002°43'7 7.5
2014-Jul-21 10:33N 51°28' W 002°54'1212.0
2014-Jul-21 09:33N 51°21' W 003°10'10 7.8
2014-Jul-21 08:15N 51°22' W 003°27'0 0.0
2014-Jul-21 06:27N 51°22' W 003°27'0 0.0
2014-Jul-21 02:33N 51°22' W 003°27'0 0.0
2014-Jul-20 17:33N 51°22' W 003°27'0 0.0
2014-Jul-20 14:13N 51°22' W 003°27'0 0.3
2014-Jul-20 13:33N 51°22' W 003°26'0 0.0
2014-Jul-20 05:33N 51°22' W 003°27'0 0.0
2014-Jul-20 01:28N 51°22' W 003°27'0 0.0
2014-Jul-19 17:09N 51°22' W 003°27'105 7.0
2014-Jul-19 02:04N 52°25' W 005°43'4 7.4
2014-Jul-19 01:33N 52°29' W 005°44'10 7.1
2014-Jul-19 00:10N 52°38' W 005°48'45 8.0
2014-Jul-18 18:33N 53°21' W 006°12'0 0.0
2014-Jul-18 11:22N 53°21' W 006°12'0 0.0
2014-Jul-18 10:28N 53°21' W 006°12'0 0.0
2014-Jul-18 08:04N 53°21' W 006°12'0 0.0
2014-Jul-18 05:04N 53°21' W 006°12'0 0.0
2014-Jul-18 04:28N 53°21' W 006°12'0 0.0
2014-Jul-18 02:10N 53°21' W 006°12'0 0.0
2014-Jul-18 01:22N 53°21' W 006°12'0 0.0
2014-Jul-18 00:04N 53°21' W 006°12'0 0.0
2014-Jul-17 21:16N 53°21' W 006°12'0 0.0
2014-Jul-17 19:28N 53°21' W 006°12'0 0.0
2014-Jul-17 18:14N 53°21' W 006°12'47 4.6
2014-Jul-17 08:04N 52°36' W 005°50'4 7.5
2014-Jul-17 07:33N 52°32' W 005°50'7 6.7
2014-Jul-17 06:32N 52°25' W 005°49'6 5.7
2014-Jul-17 05:33N 52°19' W 005°49'6 5.7
2014-Jul-17 04:32N 52°14' W 005°46'  
2014-Jul-14 14:09N 43°43' W 005°41'5 8.0
2014-Jul-14 13:32N 43°38' W 005°40'3 3.1
2014-Jul-14 12:33N 43°35' W 005°41'0 0.0
2014-Jul-14 11:30N 43°35' W 005°41'  

Dump ship's entire track history